Time,TemperatureF,DewpointF,PressureIn,WindDirection,WindDirectionDegrees,WindSpeedMPH,WindSpeedGustMPH,Humidity,HourlyPrecipIn,Conditions,Clouds,dailyrainin,SoftwareType,DateUTC
2015-04-19 00:21:00,31.0,20.0,-100.00,North,5,10.0,16.0,64,-99.99,,,-99.99,,2015-04-19 06:21:00,
2015-04-19 00:31:00,31.0,20.0,-100.00,North,5,10.0,16.0,64,-99.99,,,-99.99,,2015-04-19 06:31:00,
2015-04-19 00:41:00,31.0,20.0,-100.00,North,5,10.0,16.0,64,-99.99,,,-99.99,,2015-04-19 06:41:00,
2015-04-19 00:51:00,31.0,20.0,-100.00,North,5,10.0,16.0,64,-99.99,,,-99.99,,2015-04-19 06:51:00,
2015-04-19 01:21:00,31.0,17.0,-100.00,NE,43,6.0,19.0,56,-99.99,,,-99.99,,2015-04-19 07:21:00,
2015-04-19 01:31:00,31.0,17.0,-100.00,NE,43,6.0,19.0,56,-99.99,,,-99.99,,2015-04-19 07:31:00,
2015-04-19 01:41:00,31.0,17.0,-100.00,NE,43,6.0,19.0,56,-99.99,,,-99.99,,2015-04-19 07:41:00,
2015-04-19 01:51:00,31.0,17.0,-100.00,NE,43,6.0,19.0,56,-99.99,,,-99.99,,2015-04-19 07:51:00,
2015-04-19 02:21:00,30.0,17.0,-100.00,NNW,331,2.0,8.0,58,-99.99,,,-99.99,,2015-04-19 08:21:00,
2015-04-19 02:41:00,30.0,17.0,-100.00,NNW,331,2.0,8.0,58,-99.99,,,-99.99,,2015-04-19 08:41:00,
2015-04-19 02:51:00,30.0,17.0,-100.00,NNW,331,2.0,8.0,58,-99.99,,,-99.99,,2015-04-19 08:51:00,
2015-04-19 03:21:00,30.0,17.0,-100.00,WNW,286,2.0,6.0,59,-99.99,,,-99.99,,2015-04-19 09:21:00,
2015-04-19 03:31:00,30.0,17.0,-100.00,WNW,286,2.0,6.0,59,-99.99,,,-99.99,,2015-04-19 09:31:00,
2015-04-19 03:41:00,30.0,17.0,-100.00,WNW,286,2.0,6.0,59,-99.99,,,-99.99,,2015-04-19 09:41:00,
2015-04-19 03:51:00,30.0,17.0,-100.00,WNW,286,2.0,6.0,59,-99.99,,,-99.99,,2015-04-19 09:51:00,
2015-04-19 04:21:00,31.0,17.0,-100.00,NW,305,2.0,7.0,55,-99.99,,,-99.99,,2015-04-19 10:21:00,
2015-04-19 04:31:00,31.0,17.0,-100.00,NW,305,2.0,7.0,55,-99.99,,,-99.99,,2015-04-19 10:31:00,
2015-04-19 04:41:00,31.0,17.0,-100.00,NW,305,2.0,7.0,55,-99.99,,,-99.99,,2015-04-19 10:41:00,
2015-04-19 04:51:00,31.0,17.0,-100.00,NW,305,2.0,7.0,55,-99.99,,,-99.99,,2015-04-19 10:51:00,
2015-04-19 05:21:00,31.0,17.0,-100.00,NW,308,3.0,4.0,56,-99.99,,,-99.99,,2015-04-19 11:21:00,
2015-04-19 05:31:00,31.0,17.0,-100.00,NW,308,3.0,4.0,56,-99.99,,,-99.99,,2015-04-19 11:31:00,
2015-04-19 05:41:00,31.0,17.0,-100.00,NW,308,3.0,4.0,56,-99.99,,,-99.99,,2015-04-19 11:41:00,
2015-04-19 05:51:00,31.0,17.0,-100.00,NW,308,3.0,4.0,56,-99.99,,,-99.99,,2015-04-19 11:51:00,
2015-04-19 06:21:00,30.0,17.0,-100.00,West,278,5.0,6.0,59,-99.99,,,-99.99,,2015-04-19 12:21:00,
2015-04-19 06:31:00,30.0,17.0,-100.00,West,278,5.0,6.0,59,-99.99,,,-99.99,,2015-04-19 12:31:00,
2015-04-19 06:42:00,30.0,17.0,-100.00,West,278,5.0,6.0,59,-99.99,,,-99.99,,2015-04-19 12:42:00,
2015-04-19 07:21:00,30.0,16.0,-100.00,WSW,240,4.0,6.0,56,-99.99,,,-99.99,,2015-04-19 13:21:00,
2015-04-19 07:31:00,30.0,16.0,-100.00,WSW,240,4.0,6.0,56,-99.99,,,-99.99,,2015-04-19 13:31:00,
2015-04-19 07:41:00,30.0,16.0,-100.00,WSW,240,4.0,6.0,56,-99.99,,,-99.99,,2015-04-19 13:41:00,
2015-04-19 07:51:00,30.0,16.0,-100.00,WSW,240,4.0,6.0,56,-99.99,,,-99.99,,2015-04-19 13:51:00,
2015-04-19 08:21:00,33.0,20.0,-100.00,North,-9999,0.0,5.0,59,-99.99,,,-99.99,,2015-04-19 14:21:00,
2015-04-19 08:31:00,33.0,20.0,-100.00,North,-9999,0.0,5.0,59,-99.99,,,-99.99,,2015-04-19 14:31:00,
2015-04-19 08:41:00,33.0,20.0,-100.00,North,-9999,0.0,5.0,59,-99.99,,,-99.99,,2015-04-19 14:41:00,
2015-04-19 08:51:00,33.0,20.0,-100.00,North,-9999,0.0,5.0,59,-99.99,,,-99.99,,2015-04-19 14:51:00,